Simultaneous Nadir Overpasses (SNOs) Predictions

Prediction of SNOs between AQUA and GOES-15 Satellite Orbit:

Table of predicted SNOs for the next 14.0 days since TLE Epoch: 10/10/2014
Index Date Time (AQUA) AQUA Lat,Lon GOES-15 Lat,Lon Distance(km) Time Diff (sec)
1 10/12/2014 10:38:07 0.26,-135.60 0.20,-135.36 27.54 80
2 10/14/2014 10:25:57 -0.36,-132.64 0.20,-135.35 306.94 80
3 10/14/2014 22:47:22 -0.72,-137.84 -0.18,-135.34 284.42 80
4 10/16/2014 22:35:12 -0.08,-134.89 -0.18,-135.33 49.76 80
5 10/18/2014 22:23:01 0.53,-131.93 -0.18,-135.31 383.81 80
6 10/19/2014 10:44:17 0.55,-137.10 0.15,-135.31 203.42 80
7 10/21/2014 10:32:06 -0.08,-134.14 0.16,-135.29 130.13 80
8 10/21/2014 22:53:31 -0.98,-139.34 -0.13,-135.27 462.34 80
9 10/23/2014 10:19:55 -0.72,-131.19 0.16,-135.26 463.25 80
10 10/23/2014 22:41:19 -0.39,-136.38 -0.14,-135.24 129.26 80




NCC Satellite Simultaneous Nadir Overpasses (SNOs) Prediction Service
